Flag for Netherlands Weather past 2 weeks in 's-Hertogenbosch, Netherlands

Now
66 °F

Mostly cloudy.


Feels Like: 66 °F
Forecast: 61 / 75 °F
Wind: 6 mph from Northeast

Location: Volkel

Current Time: Jul 25, 2014 at 3:51:53 PM

Latest Report: Jul 25, 2014 at 3:25 PM


Visibility: N/A

Pressure: 29.95 "Hg

Humidity: 83%

Dew point: 61 °F

Location of 's-HertogenboschLocation

Historic Weather in 's-Hertogenbosch — Graph

°F

's-Hertogenbosch temperature yesterday

Maximum temperature yesterday: 81 °F (at 2:55 PM)
Minimum temperature yesterday: 63 °F (at 4:55 AM)
Average temperature yesterday: 71 °F

Past Weeks' High & Low Weather Summary

 TemperatureHumidityPressure
High91 °F (Jul 19, 1:25 PM)100% (Jul 10, 11:55 PM)30.18 "Hg (Jul 10, 11:55 PM)
Low50 °F (Jul 15, 5:25 AM)31% (Jul 19, 2:55 PM)29.71 "Hg (Jul 13, 4:55 PM)
Average69 °F78%29.96 "Hg
* Reported Jul 10 2:25 PM — Jul 25 2:25 PM, 's-Hertogenbosch, Weather by CustomWeather, © 2014

Note: Actual official high and low records may vary slightly from our data, if they occured in-between our weather recording intervals... More about our weather records

Advertising

's-Hertogenbosch weather history for previous 24 hours

 ConditionsComfort  
Time TempWeatherWind HumidityBarometerVisibility
2:25 PM
Jul 25
64 °FOvercast.9 mph88%29.98 "HgN/A
1:55 PM66 °FMostly cloudy.9 mph83%29.98 "HgN/A
1:25 PM64 °FMostly cloudy.12 mph83%29.98 "HgN/A
12:57 PM64 °FBroken clouds.14 mph83%29.98 "HgN/A
12:25 PM66 °FPartly sunny.14 mph78%29.98 "HgN/A
12:04 PM68 °FPartly sunny.12 mph69%29.98 "HgN/A
11:59 AM70 °FCloudy.10 mph69%29.98 "HgN/A
11:25 AM68 °FMore clouds than sun.10 mph73%30.01 "HgN/A
11:00 AM68 °FMostly cloudy.9 mph73%30.01 "HgN/A
10:55 AM68 °FBroken clouds.12 mph73%30.01 "HgN/A
10:25 AM68 °FMore clouds than sun.8 mph73%29.98 "HgN/A
9:55 AM68 °FMostly cloudy.10 mph73%29.98 "HgN/A
9:25 AM66 °FOvercast.8 mph78%29.98 "HgN/A
8:55 AM66 °FMostly cloudy.8 mph78%29.98 "HgN/A
8:25 AM66 °FOvercast.7 mph78%29.98 "HgN/A
7:55 AM64 °FMostly cloudy.7 mph78%29.98 "HgN/A
7:25 AM64 °FMostly cloudy.7 mph78%29.98 "HgN/A
6:55 AM63 °FOvercast.7 mph83%29.98 "HgN/A
6:25 AM63 °FOvercast.8 mph83%29.98 "HgN/A
5:55 AM63 °FOvercast.8 mph83%29.98 "HgN/A
5:25 AM63 °FOvercast.7 mph83%29.98 "HgN/A
4:55 AM63 °FOvercast.5 mph77%29.98 "HgN/A
4:25 AM63 °FOvercast.6 mph83%29.98 "HgN/A
3:55 AM63 °FMostly cloudy.5 mph83%29.98 "HgN/A
3:25 AM63 °FMostly cloudy.7 mph83%29.98 "HgN/A
2:55 AM63 °FMostly cloudy.3 mph83%29.98 "HgN/A
2:25 AM63 °FPassing clouds.6 mph83%30.01 "HgN/A
1:55 AM63 °FMild.6 mph83%30.01 "HgN/A
1:25 AM64 °FMild.8 mph78%30.01 "HgN/A
12:55 AM64 °FPassing clouds.7 mph78%30.01 "HgN/A
12:25 AM64 °FPassing clouds.7 mph78%30.01 "HgN/A
11:55 PM
Jul 24
64 °FHigh level clouds.8 mph78%30.01 "HgN/A
11:25 PM64 °FMild.8 mph78%29.98 "HgN/A
10:55 PM64 °FMild.8 mph78%29.98 "HgN/A
10:25 PM66 °FMild.8 mph73%29.98 "HgN/A
9:55 PM68 °FOvercast.6 mph69%29.98 "HgN/A
9:25 PM68 °FScattered clouds.9 mph69%29.98 "HgN/A
8:55 PM72 °FOvercast.7 mph57%29.95 "HgN/A
8:25 PM73 °FMore clouds than sun.7 mph53%29.95 "HgN/A
7:55 PM73 °FMostly cloudy.16 mph50%29.95 "HgN/A
7:25 PM77 °FPartly sunny.15 mph42%29.95 "HgN/A
6:55 PM79 °FWarm.13 mph45%29.95 "HgN/A
6:25 PM77 °FWarm.14 mph47%29.95 "HgN/A
5:55 PM79 °FPassing clouds.15 mph42%29.95 "HgN/A
5:25 PM81 °FWarm.14 mph45%29.95 "HgN/A
4:55 PM79 °FScattered clouds.13 mph45%29.95 "HgN/A
4:25 PM81 °FPassing clouds.12 mph48%29.95 "HgN/A
3:55 PM79 °FScattered clouds.12 mph48%29.98 "HgN/A
3:25 PM77 °FPartly sunny.12 mph47%29.98 "HgN/A
Weather by CustomWeather, © 2014

See weather overviewHow to use our weather pages